Starlink 30772

operational
NORAD ID: 58135 Int'l Des: 2023-162 Owner: SPXS Country: US Constellation: starlink
LEOCIRCULAR

About Starlink 30772

Description loading...

Live Position

Loading 3D Globe...

Upcoming Passes

Altitude History

Altitude vs Time

uPlot chart will show altitude changes over time

Two-Line Element Set

1 58135U 23162T 25351.05658621 .00001495 00000-0 12571-3 0 9993
2 58135 43.0029 222.6132 0001118 267.7966 92.2748 15.02534361119861
Epoch: Dec 17, 2025 • Age: 16 hours

Current Status

Altitude 561.4 km
Velocity 7.59 km/s
Sub-Earth Point 36.12°N, 6.53°W
Launch Date Oct 22, 2023
Age 2.1 years
Type internet

Technical Details

Classification Payload
Mass 730.00 kg
Dry Mass 700.00 kg
Total Mass 730.00 kg
Length 0.30 m
Diameter 4.10 m
Span 29.00 m
Shape Box + pan
Manufacturer SPXS
Bus Type Starlink V2M
Phase Status In Orbit
Owner/State SPXS/US

Large Constellations

Loading constellations...